Regional Weather Roundup
Issued by NWS

Home | Current Version | Previous Version | Graphics & Text | Print | Product List | Glossary On
Versions: 1 2 3 4 5 6 7 8 9 10 11 12 13 14 15 16 17 18 19 20 21 22 23 24 25 26 27 28 29 30 31 32 33 34 35 36 37 38 39 40 41 42 43 44 45 46 47 48 49 50
000
ASUS45 KCYS 272010
RWRWY

WYOMING REGIONAL WEATHER ROUNDUP
NATIONAL WEATHER SERVICE CHEYENNE WY
100 PM MST MON FEB 27 2017

NOTE:  "FAIR" INDICATES FEW OR NO CLOUDS BELOW 12,000 FEET
WITH NO SIGNIFICANT WEATHER AND/OR OBSTRUCTIONS TO VISIBILITY.

WYZ001-272100-
YELLOWSTONE NATIONAL PARK

CITY           SKY/WX    TMP DP  RH WIND       PRES   REMARKS
LK YELLOWSTONE   N/A     16  11  80 VRB5      29.48F WCI   9
W YELLOWSTONE  NOT AVBL

$$
WYZ002>013-054>058-071-098>099-272100-
NORTHERN WYOMING

CITY           SKY/WX    TMP DP  RH WIND       PRES   REMARKS
JACKSON        PTSUNNY   23  18  80 S9        29.53F WCI  13
CODY           FAIR      33  11  39 SE10      29.52F WCI  25
GREYBULL       FAIR      34  15  46 SE6       29.56F WCI  29
WORLAND        FAIR      34  15  46 S5        29.55F WCI  30
SHERIDAN       FAIR      30  18  60 S8        29.59F WCI  22
BUFFALO        FAIR      30  11  45 VRB3      29.56F
GILLETTE       FAIR      37   8  30 VRB5      29.57S WCI  33
HULETT         FAIR      37   9  30 W5        29.58S WCI  34
NEWCASTLE      FAIR      34  27  75 CALM      29.60F

$$
WYZ014>020-022>026-101>103-272100-
CENTRAL WYOMING

CITY           SKY/WX    TMP DP  RH WIND       PRES   REMARKS
BIG PINEY      CLOUDY    15  12  88 SE5       29.58F WCI   8
PINEDALE       CLOUDY    18  12  79 SE3       29.58F HAZE
DUBOIS         MOCLDY    25  10  54 S6        29.48F WCI  18
LANDER         FAIR      27  12  53 CALM      29.54F
RIVERTON       FAIR      25  10  53 CALM      29.56S
CASPER         CLOUDY    32  22  66 S5        29.53F WCI  27
DOUGLAS        CLOUDY    30  23  75 W12       29.57F WCI  20

$$
WYZ021-027>030-104>119-272100-
SOUTHERN WYOMING

CITY           SKY/WX    TMP DP  RH WIND       PRES   REMARKS
EVANSTON       LGT SNOW  22  16  78 W14       29.60S VSB 1   WCI   9
KEMMERER       LGT SNOW  27  19  74 SW12      29.60R WCI  16
FORT BRIDGER   LGT SNOW  26  24  92 W13       29.64S WCI  15
ROCK SPRINGS   LGT SNOW  24  19  81 SW17      29.59F WCI  11
DIXON          SNOW      26  22  86 NW14      29.62S VSB 1/4 WCI  14
RAWLINS        LGT SNOW  25  18  74 W9        29.56F WCI  15
SARATOGA       SNOW      23  23 100 NW14G23   29.57R VSB 1/4 WCI  11
LARAMIE        FAIR      34  22  61 SW23G30   29.51F WCI  22
CHEYENNE       FAIR      38  15  39 S10       29.55F WCI  31
TORRINGTON     PTSUNNY   32  17  54 E3        29.57F
PINE BLUFFS    FAIR      46  14  27 S20G26    29.56F

$$



USA.gov is the U.S. government's official web portal to all federal, state and local government web resources and services.